GEFSNE_prec_meanprecacc_006.txt.gz
Total_Precipitation_Accumulation
0.00 0.00 0.00 0.00 0.01 0.01 0.04 0.05 0.03 0.01 0.00 0.03 0.14 0.18 0.12 0.10 0.09 0.12 0.16 0.13 0.08 0.05 0.04 0.02 0.01 0.01 0.01 0.00 0.00 0.00 0.00 0.00 0.01 0.02 0.05 0.09 0.13 0.16
0.00 0.00 0.00 0.01 0.01 0.02 0.03 0.05 0.06 0.03 0.01 0.02 0.13 0.21 0.23 0.14 0.14 0.16 0.12 0.07 0.05 0.03 0.02 0.01 0.01 0.00 0.00 0.00 0.00 0.00 0.00 0.00 0.00 0.01 0.01 0.02 0.05 0.10
0.00 0.00 0.00 0.01 0.01 0.02 0.02 0.02 0.03 0.05 0.04 0.08 0.13 0.16 0.22 0.21 0.21 0.18 0.10 0.05 0.04 0.02 0.01 0.01 0.01 0.00 0.00 0.00 0.00 0.00 0.00 0.00 0.00 0.00 0.00 0.00 0.01 0.01
0.00 0.00 0.00 0.01 0.01 0.01 0.00 0.00 0.01 0.04 0.08 0.09 0.08 0.07 0.09 0.12 0.14 0.12 0.06 0.03 0.01 0.01 0.00 0.00 0.00 0.00 0.00 0.00 0.00 0.00 0.00 0.00 0.00 0.00 0.00 0.00 0.00 0.00
0.00 0.00 0.01 0.01 0.01 0.00 0.00 0.00 0.00 0.02 0.05 0.05 0.07 0.08 0.08 0.05 0.06 0.06 0.04 0.02 0.01 0.01 0.00 0.00 0.00 0.00 0.00 0.00 0.00 0.00 0.00 0.00 0.00 0.00 0.00 0.00 0.00 0.00
0.01 0.00 0.00 0.00 0.00 0.00 0.00 0.00 0.00 0.01 0.02 0.04 0.07 0.09 0.09 0.05 0.04 0.04 0.04 0.02 0.01 0.01 0.01 0.00 0.00 0.00 0.00 0.00 0.00 0.00 0.00 0.00 0.00 0.00 0.00 0.00 0.00 0.00
0.02 0.02 0.01 0.00 0.00 0.00 0.00 0.00 0.01 0.02 0.03 0.03 0.07 0.10 0.12 0.10 0.06 0.04 0.03 0.02 0.01 0.01 0.01 0.01 0.01 0.00 0.00 0.00 0.00 0.00 0.00 0.00 0.00 0.00 0.00 0.00 0.00 0.00
0.07 0.04 0.02 0.01 0.00 0.00 0.00 0.00 0.00 0.01 0.02 0.03 0.05 0.10 0.11 0.08 0.07 0.07 0.05 0.03 0.02 0.02 0.02 0.02 0.01 0.00 0.00 0.00 0.00 0.00 0.00 0.00 0.00 0.00 0.00 0.00 0.00 0.00
0.13 0.10 0.05 0.02 0.01 0.00 0.00 0.00 0.00 0.00 0.00 0.01 0.03 0.09 0.14 0.13 0.10 0.08 0.08 0.08 0.07 0.06 0.03 0.01 0.00 0.00 0.00 0.00 0.00 0.00 0.00 0.00 0.00 0.00 0.00 0.00 0.00 0.00
0.09 0.12 0.09 0.04 0.01 0.00 0.00 0.00 0.00 0.00 0.00 0.00 0.01 0.06 0.12 0.14 0.12 0.10 0.10 0.12 0.12 0.09 0.03 0.01 0.00 0.00 0.00 0.00 0.00 0.00 0.00 0.00 0.00 0.00 0.00 0.00 0.00 0.00
0.06 0.10 0.10 0.05 0.01 0.00 0.00 0.00 0.00 0.00 0.01 0.01 0.01 0.05 0.10 0.09 0.05 0.04 0.06 0.06 0.07 0.06 0.02 0.01 0.00 0.00 0.00 0.00 0.00 0.00 0.00 0.00 0.00 0.00 0.00 0.00 0.00 0.00
0.05 0.10 0.12 0.07 0.02 0.00 0.00 0.00 0.00 0.00 0.00 0.00 0.01 0.03 0.04 0.03 0.01 0.02 0.02 0.01 0.01 0.01 0.01 0.00 0.00 0.00 0.00 0.00 0.00 0.00 0.00 0.00 0.00 0.00 0.00 0.00 0.00 0.00
0.07 0.11 0.15 0.11 0.04 0.01 0.00 0.00 0.01 0.00 0.00 0.00 0.00 0.01 0.01 0.01 0.00 0.02 0.02 0.01 0.00 0.00 0.00 0.00 0.00 0.00 0.00 0.00 0.00 0.00 0.00 0.00 0.00 0.00 0.00 0.00 0.00 0.00
0.13 0.18 0.18 0.18 0.07 0.02 0.01 0.01 0.01 0.00 0.00 0.00 0.00 0.00 0.00 0.00 0.00 0.01 0.01 0.00 0.00 0.00 0.00 0.00 0.00 0.00 0.00 0.00 0.00 0.00 0.00 0.00 0.00 0.00 0.00 0.00 0.00 0.00
0.15 0.26 0.29 0.26 0.14 0.05 0.03 0.02 0.01 0.00 0.00 0.00 0.00 0.00 0.00 0.00 0.00 0.00 0.00 0.00 0.00 0.00 0.00 0.00 0.00 0.00 0.00 0.00 0.00 0.00 0.00 0.00 0.00 0.00 0.00 0.00 0.00 0.00
0.13 0.26 0.38 0.36 0.22 0.10 0.06 0.03 0.01 0.00 0.00 0.00 0.00 0.00 0.00 0.00 0.00 0.00 0.00 0.00 0.00 0.00 0.00 0.00 0.00 0.00 0.00 0.00 0.00 0.00 0.00 0.00 0.00 0.00 0.00 0.00 0.00 0.00
0.10 0.30 0.43 0.43 0.30 0.14 0.06 0.03 0.01 0.00 0.00 0.00 0.00 0.00 0.00 0.00 0.00 0.00 0.00 0.00 0.00 0.00 0.00 0.00 0.00 0.00 0.00 0.00 0.00 0.00 0.00 0.00 0.00 0.00 0.00 0.00 0.00 0.00
0.14 0.32 0.42 0.39 0.29 0.16 0.06 0.02 0.01 0.00 0.00 0.00 0.00 0.00 0.00 0.00 0.00 0.00 0.00 0.00 0.00 0.00 0.00 0.00 0.00 0.00 0.00 0.00 0.00 0.00 0.00 0.00 0.00 0.00 0.00 0.00 0.00 0.00
0.19 0.26 0.29 0.26 0.20 0.13 0.05 0.01 0.00 0.00 0.00 0.00 0.00 0.00 0.00 0.00 0.00 0.00 0.00 0.00 0.00 0.00 0.00 0.00 0.00 0.00 0.00 0.00 0.00 0.00 0.00 0.00 0.00 0.00 0.00 0.00 0.00 0.00
0.17 0.17 0.16 0.15 0.11 0.08 0.03 0.01 0.00 0.00 0.00 0.00 0.00 0.00 0.00 0.00 0.00 0.00 0.00 0.00 0.00 0.00 0.00 0.00 0.00 0.00 0.00 0.00 0.00 0.00 0.00 0.00 0.00 0.00 0.00 0.00 0.00 0.00
0.11 0.09 0.07 0.07 0.05 0.03 0.01 0.00 0.00 0.00 0.00 0.00 0.00 0.00 0.00 0.00 0.00 0.00 0.00 0.00 0.00 0.00 0.00 0.00 0.00 0.00 0.00 0.00 0.00 0.00 0.00 0.00 0.00 0.00 0.00 0.00 0.00 0.00
0.07 0.04 0.02 0.02 0.01 0.00 0.00 0.00 0.00 0.00 0.00 0.00 0.00 0.00 0.00 0.00 0.00 0.00 0.00 0.00 0.00 0.00 0.00 0.00 0.00 0.00 0.00 0.00 0.00 0.00 0.00 0.00 0.00 0.00 0.00 0.00 0.00 0.00
0.03 0.01 0.01 0.00 0.00 0.00 0.00 0.00 0.00 0.00 0.00 0.00 0.00 0.00 0.00 0.00 0.00 0.00 0.00 0.00 0.00 0.00 0.00 0.00 0.00 0.00 0.00 0.00 0.00 0.00 0.00 0.00 0.00 0.00 0.00 0.00 0.00 0.00

GEFSNE_prec_meanprecacc_012.txt.gz
Total_Precipitation_Accumulation
0.00 0.00 0.00 0.00 0.01 0.01 0.04 0.05 0.04 0.01 0.00 0.03 0.14 0.19 0.12 0.10 0.10 0.14 0.18 0.17 0.13 0.10 0.08 0.08 0.08 0.07 0.08 0.10 0.12 0.13 0.13 0.13 0.13 0.12 0.12 0.14 0.16 0.19
0.00 0.00 0.00 0.01 0.01 0.02 0.03 0.05 0.06 0.04 0.01 0.02 0.13 0.22 0.23 0.14 0.14 0.17 0.14 0.12 0.11 0.11 0.08 0.06 0.06 0.05 0.03 0.02 0.03 0.03 0.03 0.04 0.04 0.04 0.03 0.03 0.05 0.11
0.03 0.01 0.01 0.01 0.01 0.02 0.02 0.02 0.03 0.05 0.04 0.08 0.13 0.17 0.23 0.21 0.22 0.19 0.11 0.08 0.09 0.11 0.09 0.07 0.04 0.03 0.03 0.01 0.01 0.01 0.01 0.01 0.01 0.01 0.01 0.01 0.01 0.02
0.09 0.04 0.02 0.01 0.01 0.01 0.00 0.00 0.01 0.04 0.08 0.09 0.08 0.08 0.11 0.14 0.15 0.13 0.09 0.07 0.06 0.07 0.06 0.05 0.03 0.02 0.01 0.01 0.00 0.00 0.00 0.00 0.00 0.00 0.00 0.00 0.00 0.00
0.15 0.13 0.08 0.04 0.02 0.00 0.00 0.00 0.00 0.02 0.05 0.05 0.07 0.09 0.10 0.10 0.09 0.08 0.07 0.06 0.05 0.05 0.05 0.04 0.02 0.01 0.00 0.00 0.00 0.00 0.00 0.00 0.00 0.00 0.00 0.00 0.00 0.00
0.08 0.12 0.13 0.10 0.05 0.02 0.00 0.00 0.00 0.01 0.02 0.04 0.09 0.12 0.13 0.11 0.09 0.07 0.08 0.07 0.05 0.03 0.03 0.01 0.01 0.00 0.00 0.00 0.00 0.00 0.00 0.00 0.00 0.00 0.00 0.00 0.00 0.00
0.04 0.05 0.07 0.07 0.07 0.04 0.01 0.00 0.01 0.02 0.03 0.04 0.09 0.14 0.17 0.18 0.14 0.09 0.06 0.05 0.05 0.04 0.02 0.01 0.01 0.00 0.00 0.00 0.00 0.00 0.00 0.00 0.00 0.00 0.00 0.00 0.00 0.00
0.07 0.05 0.04 0.03 0.03 0.03 0.02 0.01 0.01 0.01 0.02 0.03 0.07 0.13 0.15 0.13 0.11 0.10 0.08 0.05 0.06 0.05 0.02 0.02 0.01 0.01 0.00 0.00 0.00 0.00 0.00 0.00 0.00 0.00 0.00 0.00 0.00 0.00
0.13 0.10 0.06 0.04 0.03 0.03 0.02 0.01 0.00 0.00 0.00 0.01 0.04 0.11 0.17 0.17 0.16 0.14 0.11 0.10 0.10 0.10 0.04 0.01 0.00 0.00 0.00 0.00 0.00 0.00 0.00 0.00 0.00 0.00 0.00 0.00 0.00 0.00
0.09 0.12 0.09 0.05 0.04 0.03 0.03 0.02 0.01 0.00 0.00 0.00 0.02 0.07 0.15 0.20 0.20 0.20 0.22 0.21 0.20 0.15 0.07 0.04 0.01 0.00 0.00 0.00 0.00 0.00 0.00 0.00 0.00 0.00 0.00 0.00 0.00 0.00
0.06 0.10 0.11 0.08 0.05 0.04 0.02 0.02 0.01 0.01 0.01 0.01 0.02 0.08 0.17 0.21 0.21 0.21 0.24 0.20 0.18 0.13 0.05 0.03 0.02 0.01 0.00 0.00 0.00 0.00 0.00 0.00 0.00 0.00 0.00 0.00 0.00 0.00
0.05 0.10 0.14 0.11 0.08 0.06 0.03 0.02 0.01 0.00 0.00 0.01 0.02 0.07 0.10 0.13 0.16 0.15 0.14 0.11 0.08 0.07 0.03 0.02 0.01 0.01 0.01 0.00 0.00 0.00 0.00 0.00 0.00 0.00 0.00 0.00 0.00 0.00
0.07 0.12 0.18 0.17 0.13 0.09 0.06 0.03 0.02 0.01 0.01 0.01 0.02 0.05 0.07 0.09 0.10 0.12 0.12 0.07 0.03 0.02 0.01 0.00 0.00 0.00 0.00 0.00 0.00 0.00 0.00 0.00 0.00 0.00 0.00 0.00 0.00 0.00
0.13 0.18 0.22 0.27 0.20 0.16 0.13 0.09 0.04 0.02 0.01 0.01 0.03 0.04 0.05 0.06 0.06 0.07 0.07 0.04 0.01 0.00 0.00 0.00 0.00 0.00 0.00 0.00 0.00 0.00 0.00 0.00 0.00 0.00 0.00 0.00 0.00 0.00
0.15 0.27 0.35 0.40 0.33 0.25 0.22 0.18 0.07 0.03 0.02 0.02 0.02 0.02 0.02 0.03 0.03 0.04 0.03 0.01 0.00 0.00 0.00 0.00 0.00 0.00 0.00 0.00 0.00 0.00 0.00 0.00 0.00 0.00 0.00 0.00 0.00 0.00
0.13 0.28 0.45 0.55 0.53 0.42 0.34 0.27 0.13 0.05 0.03 0.02 0.02 0.02 0.02 0.02 0.02 0.02 0.01 0.01 0.00 0.00 0.00 0.00 0.00 0.00 0.00 0.00 0.00 0.00 0.00 0.00 0.00 0.00 0.00 0.00 0.00 0.00
0.11 0.32 0.50 0.63 0.66 0.60 0.49 0.37 0.21 0.09 0.05 0.04 0.03 0.02 0.02 0.02 0.02 0.02 0.02 0.01 0.00 0.00 0.00 0.00 0.00 0.00 0.00 0.00 0.00 0.00 0.00 0.00 0.00 0.00 0.00 0.00 0.00 0.00
0.14 0.33 0.48 0.57 0.61 0.65 0.61 0.48 0.27 0.11 0.06 0.04 0.03 0.02 0.02 0.01 0.02 0.02 0.02 0.02 0.01 0.00 0.00 0.00 0.00 0.00 0.00 0.00 0.00 0.00 0.00 0.00 0.00 0.00 0.00 0.00 0.00 0.00
0.19 0.26 0.32 0.38 0.44 0.55 0.61 0.52 0.28 0.11 0.06 0.04 0.03 0.02 0.01 0.01 0.01 0.01 0.01 0.01 0.01 0.00 0.00 0.00 0.00 0.00 0.00 0.00 0.00 0.00 0.00 0.00 0.00 0.00 0.00 0.00 0.00 0.00
0.17 0.18 0.18 0.22 0.29 0.41 0.52 0.50 0.30 0.13 0.07 0.04 0.03 0.02 0.01 0.01 0.01 0.01 0.00 0.00 0.00 0.00 0.00 0.00 0.00 0.00 0.00 0.00 0.00 0.00 0.00 0.00 0.00 0.00 0.00 0.00 0.00 0.00
0.12 0.10 0.09 0.13 0.20 0.32 0.41 0.41 0.29 0.14 0.07 0.03 0.02 0.01 0.01 0.00 0.00 0.00 0.00 0.00 0.00 0.00 0.00 0.00 0.00 0.00 0.00 0.00 0.00 0.00 0.00 0.00 0.00 0.00 0.00 0.00 0.00 0.00
0.08 0.06 0.05 0.08 0.16 0.26 0.32 0.31 0.23 0.12 0.05 0.03 0.01 0.01 0.00 0.00 0.00 0.00 0.00 0.00 0.00 0.00 0.00 0.00 0.00 0.00 0.00 0.00 0.00 0.00 0.00 0.00 0.00 0.00 0.00 0.00 0.00 0.00
0.06 0.04 0.04 0.07 0.13 0.20 0.23 0.21 0.15 0.08 0.03 0.02 0.01 0.00 0.00 0.00 0.00 0.00 0.00 0.00 0.00 0.00 0.00 0.00 0.00 0.00 0.00 0.00 0.00 0.00 0.00 0.00 0.00 0.00 0.00 0.00 0.00 0.00

GEFSNE_prec_meanprecacc_018.txt.gz
Total_Precipitation_Accumulation
0.10 0.08 0.04 0.02 0.01 0.01 0.04 0.05 0.04 0.02 0.01 0.03 0.15 0.19 0.12 0.10 0.10 0.14 0.18 0.17 0.13 0.10 0.08 0.08 0.09 0.09 0.11 0.14 0.19 0.22 0.26 0.32 0.38 0.45 0.51 0.56 0.56 0.52
0.25 0.19 0.13 0.08 0.05 0.03 0.04 0.05 0.07 0.05 0.02 0.03 0.13 0.22 0.24 0.14 0.15 0.18 0.14 0.12 0.11 0.11 0.08 0.07 0.08 0.08 0.07 0.07 0.10 0.13 0.15 0.17 0.21 0.27 0.31 0.34 0.34 0.35
0.53 0.42 0.30 0.21 0.14 0.08 0.05 0.04 0.04 0.06 0.06 0.10 0.14 0.18 0.24 0.23 0.23 0.20 0.12 0.09 0.09 0.12 0.10 0.08 0.07 0.06 0.07 0.06 0.05 0.05 0.08 0.08 0.09 0.12 0.16 0.19 0.19 0.17
0.64 0.66 0.55 0.41 0.27 0.16 0.09 0.05 0.04 0.06 0.10 0.13 0.11 0.09 0.13 0.16 0.19 0.14 0.10 0.07 0.07 0.09 0.08 0.08 0.07 0.06 0.07 0.06 0.05 0.04 0.03 0.03 0.03 0.05 0.07 0.09 0.11 0.10
0.38 0.58 0.67 0.61 0.44 0.29 0.19 0.12 0.08 0.05 0.07 0.10 0.12 0.12 0.12 0.12 0.12 0.09 0.08 0.07 0.05 0.07 0.08 0.08 0.07 0.05 0.04 0.04 0.03 0.02 0.01 0.01 0.01 0.02 0.02 0.03 0.04 0.04
0.13 0.26 0.46 0.61 0.58 0.46 0.32 0.21 0.17 0.12 0.08 0.09 0.13 0.14 0.15 0.14 0.11 0.09 0.09 0.09 0.06 0.05 0.05 0.04 0.04 0.03 0.02 0.01 0.01 0.01 0.01 0.00 0.00 0.00 0.01 0.01 0.01 0.01
0.06 0.08 0.16 0.31 0.46 0.51 0.45 0.33 0.24 0.18 0.14 0.11 0.13 0.16 0.19 0.21 0.17 0.12 0.07 0.07 0.07 0.05 0.02 0.02 0.02 0.01 0.01 0.01 0.01 0.00 0.00 0.00 0.00 0.00 0.00 0.00 0.00 0.00
0.11 0.09 0.07 0.10 0.20 0.33 0.42 0.41 0.32 0.21 0.16 0.13 0.13 0.17 0.18 0.15 0.13 0.12 0.09 0.06 0.08 0.07 0.03 0.03 0.01 0.01 0.00 0.00 0.00 0.00 0.00 0.00 0.00 0.00 0.00 0.00 0.00 0.00
0.19 0.16 0.10 0.07 0.08 0.13 0.23 0.30 0.30 0.22 0.14 0.11 0.14 0.20 0.24 0.22 0.18 0.15 0.13 0.12 0.11 0.10 0.04 0.02 0.00 0.00 0.00 0.00 0.00 0.00 0.00 0.00 0.00 0.00 0.00 0.00 0.00 0.00
0.14 0.17 0.14 0.10 0.08 0.07 0.09 0.15 0.19 0.18 0.13 0.07 0.09 0.18 0.27 0.31 0.24 0.22 0.24 0.25 0.24 0.17 0.07 0.04 0.01 0.00 0.00 0.00 0.00 0.00 0.00 0.00 0.00 0.00 0.00 0.00 0.00 0.00
0.11 0.12 0.14 0.12 0.08 0.05 0.05 0.06 0.10 0.12 0.11 0.08 0.07 0.16 0.25 0.29 0.27 0.24 0.27 0.26 0.26 0.18 0.07 0.04 0.03 0.01 0.00 0.00 0.00 0.00 0.00 0.00 0.00 0.00 0.00 0.00 0.00 0.00
0.12 0.14 0.16 0.13 0.10 0.06 0.05 0.04 0.04 0.06 0.07 0.06 0.05 0.09 0.13 0.17 0.19 0.18 0.18 0.17 0.17 0.14 0.06 0.02 0.02 0.02 0.02 0.01 0.00 0.00 0.00 0.00 0.00 0.00 0.00 0.00 0.00 0.00
0.09 0.13 0.19 0.18 0.13 0.09 0.07 0.05 0.04 0.04 0.07 0.07 0.07 0.09 0.13 0.15 0.14 0.18 0.20 0.16 0.14 0.09 0.04 0.02 0.01 0.01 0.01 0.02 0.01 0.00 0.00 0.00 0.00 0.00 0.00 0.00 0.00 0.00
0.15 0.19 0.23 0.28 0.20 0.16 0.13 0.10 0.05 0.04 0.06 0.09 0.10 0.10 0.10 0.11 0.12 0.16 0.20 0.20 0.15 0.12 0.06 0.03 0.01 0.01 0.01 0.01 0.01 0.00 0.00 0.00 0.00 0.00 0.00 0.00 0.00 0.00
0.16 0.27 0.35 0.40 0.33 0.26 0.22 0.19 0.11 0.06 0.07 0.09 0.10 0.09 0.07 0.06 0.08 0.11 0.14 0.16 0.16 0.12 0.08 0.04 0.01 0.01 0.00 0.00 0.00 0.00 0.00 0.00 0.00 0.00 0.00 0.00 0.00 0.00
0.13 0.28 0.45 0.55 0.53 0.42 0.35 0.30 0.19 0.11 0.10 0.11 0.11 0.10 0.08 0.07 0.07 0.06 0.06 0.07 0.09 0.08 0.05 0.02 0.01 0.00 0.00 0.00 0.00 0.00 0.00 0.00 0.00 0.00 0.00 0.00 0.00 0.00
0.11 0.33 0.51 0.64 0.67 0.62 0.52 0.42 0.32 0.22 0.18 0.17 0.14 0.11 0.09 0.07 0.07 0.06 0.04 0.03 0.02 0.02 0.01 0.01 0.00 0.00 0.00 0.00 0.00 0.00 0.00 0.00 0.00 0.00 0.00 0.00 0.00 0.00
0.15 0.34 0.49 0.58 0.63 0.68 0.66 0.58 0.43 0.31 0.26 0.23 0.17 0.11 0.08 0.07 0.06 0.06 0.05 0.03 0.02 0.01 0.00 0.00 0.00 0.01 0.00 0.00 0.00 0.00 0.00 0.00 0.00 0.00 0.00 0.00 0.00 0.00
0.20 0.29 0.35 0.41 0.48 0.60 0.68 0.66 0.49 0.36 0.34 0.33 0.24 0.15 0.09 0.07 0.06 0.06 0.05 0.04 0.03 0.02 0.01 0.00 0.00 0.00 0.01 0.00 0.00 0.00 0.00 0.00 0.00 0.00 0.00 0.00 0.00 0.00
0.18 0.21 0.22 0.27 0.34 0.49 0.61 0.65 0.56 0.43 0.40 0.41 0.33 0.19 0.12 0.08 0.06 0.05 0.04 0.03 0.03 0.02 0.01 0.01 0.01 0.00 0.00 0.00 0.00 0.00 0.00 0.00 0.00 0.00 0.00 0.00 0.00 0.00
0.13 0.13 0.13 0.18 0.26 0.40 0.52 0.59 0.57 0.48 0.43 0.43 0.36 0.23 0.14 0.09 0.06 0.05 0.04 0.03 0.02 0.02 0.01 0.01 0.01 0.00 0.00 0.00 0.00 0.00 0.00 0.00 0.00 0.00 0.00 0.00 0.00 0.00
0.11 0.08 0.08 0.12 0.21 0.35 0.46 0.52 0.53 0.50 0.45 0.42 0.33 0.21 0.13 0.09 0.06 0.05 0.04 0.02 0.02 0.01 0.01 0.01 0.01 0.00 0.00 0.00 0.00 0.00 0.00 0.00 0.00 0.00 0.00 0.00 0.00 0.00
0.08 0.06 0.07 0.10 0.19 0.31 0.40 0.45 0.46 0.45 0.42 0.37 0.27 0.17 0.11 0.09 0.07 0.04 0.03 0.02 0.01 0.01 0.01 0.01 0.00 0.00 0.00 0.00 0.00 0.00 0.00 0.00 0.00 0.00 0.00 0.00 0.00 0.00

GEFSNE_prec_meanprecacc_024.txt.gz
Total_Precipitation_Accumulation
0.27 0.33 0.30 0.19 0.11 0.06 0.06 0.07 0.10 0.10 0.09 0.11 0.19 0.21 0.14 0.12 0.11 0.15 0.20 0.17 0.13 0.10 0.08 0.08 0.09 0.09 0.11 0.14 0.19 0.24 0.28 0.34 0.42 0.51 0.62 0.74 0.81 0.85
0.32 0.34 0.35 0.32 0.27 0.19 0.13 0.10 0.10 0.11 0.14 0.13 0.21 0.27 0.26 0.15 0.15 0.20 0.15 0.12 0.11 0.11 0.08 0.07 0.08 0.08 0.07 0.07 0.11 0.15 0.17 0.20 0.26 0.33 0.38 0.44 0.49 0.58
0.55 0.48 0.42 0.42 0.39 0.32 0.26 0.19 0.14 0.15 0.19 0.24 0.28 0.32 0.32 0.26 0.24 0.21 0.12 0.09 0.09 0.12 0.10 0.08 0.07 0.07 0.08 0.06 0.05 0.06 0.09 0.11 0.13 0.16 0.20 0.25 0.27 0.29
0.65 0.68 0.60 0.52 0.46 0.38 0.32 0.28 0.24 0.23 0.26 0.32 0.35 0.35 0.30 0.29 0.27 0.17 0.11 0.08 0.07 0.09 0.09 0.08 0.07 0.06 0.07 0.07 0.06 0.04 0.04 0.04 0.05 0.07 0.09 0.12 0.17 0.21
0.39 0.59 0.69 0.66 0.54 0.46 0.38 0.33 0.30 0.28 0.27 0.29 0.35 0.40 0.39 0.31 0.22 0.12 0.09 0.08 0.05 0.07 0.08 0.08 0.07 0.05 0.05 0.04 0.04 0.03 0.02 0.02 0.02 0.03 0.04 0.05 0.07 0.09
0.15 0.28 0.47 0.63 0.62 0.54 0.46 0.39 0.37 0.36 0.33 0.32 0.36 0.41 0.44 0.39 0.24 0.11 0.10 0.09 0.06 0.05 0.05 0.05 0.05 0.04 0.03 0.02 0.01 0.02 0.01 0.01 0.01 0.01 0.02 0.03 0.03 0.03
0.11 0.12 0.18 0.32 0.48 0.55 0.51 0.45 0.41 0.39 0.39 0.36 0.38 0.43 0.46 0.43 0.29 0.15 0.08 0.07 0.07 0.05 0.03 0.03 0.02 0.02 0.01 0.01 0.01 0.01 0.01 0.01 0.01 0.01 0.01 0.01 0.01 0.02
0.22 0.18 0.14 0.13 0.22 0.34 0.44 0.47 0.45 0.40 0.39 0.39 0.41 0.47 0.50 0.44 0.36 0.19 0.10 0.06 0.08 0.07 0.03 0.03 0.02 0.01 0.01 0.00 0.01 0.01 0.01 0.00 0.00 0.00 0.00 0.00 0.00 0.01
0.34 0.31 0.19 0.10 0.12 0.16 0.24 0.33 0.37 0.34 0.32 0.35 0.39 0.48 0.62 0.63 0.51 0.28 0.15 0.13 0.11 0.10 0.05 0.03 0.02 0.01 0.00 0.00 0.01 0.00 0.00 0.00 0.00 0.00 0.00 0.00 0.00 0.00
0.30 0.35 0.27 0.21 0.18 0.18 0.16 0.17 0.21 0.23 0.22 0.22 0.28 0.41 0.58 0.72 0.66 0.50 0.36 0.28 0.24 0.17 0.08 0.05 0.02 0.01 0.01 0.00 0.00 0.00 0.00 0.00 0.00 0.00 0.00 0.00 0.00 0.00
0.25 0.28 0.29 0.25 0.19 0.14 0.15 0.13 0.13 0.15 0.18 0.19 0.22 0.35 0.47 0.59 0.66 0.57 0.39 0.28 0.26 0.19 0.07 0.04 0.03 0.02 0.01 0.00 0.00 0.00 0.00 0.00 0.00 0.00 0.00 0.00 0.00 0.00
0.30 0.33 0.35 0.32 0.22 0.12 0.13 0.14 0.11 0.11 0.12 0.14 0.16 0.22 0.30 0.36 0.46 0.46 0.31 0.19 0.17 0.14 0.06 0.02 0.02 0.02 0.02 0.01 0.00 0.00 0.00 0.00 0.00 0.00 0.00 0.00 0.00 0.00
0.28 0.29 0.35 0.31 0.22 0.13 0.12 0.13 0.11 0.10 0.12 0.13 0.15 0.19 0.25 0.31 0.34 0.41 0.36 0.21 0.14 0.09 0.04 0.02 0.01 0.01 0.01 0.02 0.02 0.01 0.00 0.00 0.00 0.00 0.00 0.00 0.00 0.00
0.38 0.37 0.39 0.40 0.26 0.18 0.15 0.14 0.08 0.06 0.11 0.16 0.18 0.19 0.21 0.24 0.28 0.35 0.36 0.29 0.18 0.12 0.07 0.03 0.02 0.01 0.01 0.01 0.01 0.01 0.01 0.00 0.00 0.00 0.00 0.00 0.00 0.00
0.41 0.52 0.52 0.49 0.38 0.28 0.23 0.20 0.11 0.07 0.09 0.13 0.16 0.17 0.18 0.21 0.25 0.28 0.27 0.22 0.19 0.14 0.09 0.05 0.02 0.01 0.01 0.01 0.01 0.01 0.00 0.00 0.00 0.00 0.00 0.00 0.00 0.00
0.30 0.45 0.55 0.61 0.56 0.44 0.36 0.30 0.19 0.12 0.11 0.13 0.16 0.20 0.23 0.23 0.23 0.17 0.13 0.11 0.12 0.11 0.07 0.04 0.02 0.01 0.00 0.00 0.00 0.00 0.00 0.00 0.00 0.00 0.00 0.00 0.00 0.00
0.22 0.45 0.58 0.67 0.69 0.63 0.53 0.44 0.33 0.23 0.19 0.19 0.19 0.21 0.23 0.23 0.20 0.15 0.10 0.06 0.04 0.04 0.04 0.03 0.02 0.01 0.01 0.00 0.00 0.00 0.00 0.00 0.00 0.00 0.00 0.00 0.00 0.00
0.22 0.44 0.58 0.64 0.66 0.70 0.68 0.61 0.46 0.33 0.27 0.26 0.23 0.22 0.23 0.20 0.16 0.12 0.09 0.07 0.04 0.02 0.02 0.01 0.02 0.02 0.01 0.00 0.00 0.00 0.00 0.00 0.00 0.00 0.00 0.00 0.00 0.00
0.24 0.35 0.41 0.47 0.52 0.64 0.72 0.71 0.54 0.40 0.40 0.38 0.32 0.28 0.25 0.21 0.14 0.11 0.08 0.07 0.05 0.03 0.02 0.01 0.01 0.01 0.01 0.01 0.00 0.00 0.00 0.00 0.00 0.00 0.00 0.00 0.00 0.00
0.20 0.24 0.26 0.32 0.39 0.55 0.67 0.72 0.62 0.49 0.46 0.48 0.43 0.35 0.29 0.22 0.15 0.10 0.07 0.05 0.04 0.03 0.02 0.02 0.01 0.01 0.01 0.00 0.00 0.00 0.00 0.00 0.00 0.00 0.00 0.00 0.00 0.00
0.14 0.15 0.16 0.23 0.32 0.47 0.60 0.67 0.65 0.56 0.49 0.50 0.48 0.40 0.33 0.25 0.17 0.11 0.07 0.06 0.04 0.03 0.02 0.02 0.01 0.00 0.00 0.00 0.00 0.00 0.00 0.00 0.00 0.00 0.00 0.00 0.00 0.00
0.14 0.12 0.12 0.17 0.29 0.44 0.56 0.61 0.61 0.57 0.52 0.50 0.46 0.39 0.32 0.27 0.19 0.13 0.08 0.05 0.03 0.02 0.02 0.03 0.01 0.00 0.00 0.00 0.00 0.00 0.00 0.00 0.00 0.00 0.00 0.00 0.00 0.00
0.13 0.10 0.11 0.15 0.25 0.39 0.48 0.52 0.52 0.51 0.48 0.46 0.42 0.36 0.30 0.27 0.23 0.15 0.09 0.05 0.03 0.03 0.03 0.03 0.01 0.01 0.00 0.00 0.00 0.00 0.00 0.00 0.00 0.00 0.00 0.00 0.00 0.00

GEFSNE_prec_meanprecacc_030.txt.gz
Total_Precipitation_Accumulation
0.27 0.34 0.33 0.23 0.16 0.14 0.19 0.23 0.25 0.20 0.16 0.18 0.26 0.28 0.19 0.15 0.13 0.17 0.22 0.18 0.14 0.11 0.08 0.08 0.09 0.10 0.11 0.15 0.20 0.24 0.29 0.35 0.44 0.54 0.66 0.79 0.88 0.95
0.32 0.34 0.35 0.34 0.31 0.24 0.22 0.25 0.27 0.26 0.24 0.20 0.29 0.35 0.35 0.20 0.19 0.22 0.17 0.13 0.12 0.11 0.08 0.07 0.08 0.08 0.07 0.07 0.11 0.15 0.17 0.20 0.27 0.35 0.42 0.48 0.54 0.64
0.55 0.48 0.42 0.43 0.42 0.36 0.33 0.29 0.28 0.31 0.34 0.35 0.41 0.48 0.47 0.35 0.30 0.25 0.14 0.10 0.10 0.12 0.10 0.08 0.07 0.07 0.08 0.06 0.06 0.06 0.09 0.11 0.13 0.17 0.22 0.27 0.30 0.33
0.65 0.69 0.60 0.53 0.47 0.41 0.37 0.35 0.34 0.36 0.41 0.49 0.53 0.56 0.51 0.47 0.40 0.22 0.12 0.08 0.07 0.09 0.09 0.08 0.08 0.06 0.07 0.07 0.06 0.04 0.04 0.04 0.05 0.07 0.09 0.13 0.19 0.22
0.39 0.60 0.69 0.66 0.54 0.47 0.41 0.38 0.38 0.38 0.40 0.44 0.53 0.63 0.69 0.62 0.41 0.18 0.10 0.08 0.06 0.07 0.08 0.09 0.08 0.06 0.05 0.05 0.05 0.04 0.02 0.02 0.02 0.03 0.04 0.06 0.08 0.10
0.16 0.29 0.47 0.64 0.62 0.55 0.47 0.41 0.42 0.45 0.45 0.46 0.55 0.67 0.76 0.75 0.49 0.24 0.13 0.10 0.06 0.05 0.06 0.06 0.06 0.05 0.04 0.03 0.02 0.02 0.02 0.02 0.01 0.02 0.03 0.03 0.04 0.04
0.11 0.13 0.19 0.34 0.49 0.56 0.52 0.47 0.45 0.46 0.49 0.49 0.55 0.69 0.76 0.75 0.51 0.29 0.14 0.09 0.07 0.05 0.03 0.03 0.03 0.02 0.02 0.02 0.02 0.02 0.02 0.02 0.01 0.01 0.01 0.01 0.02 0.02
0.23 0.19 0.15 0.15 0.24 0.37 0.46 0.48 0.48 0.45 0.48 0.49 0.54 0.66 0.73 0.68 0.61 0.38 0.19 0.09 0.09 0.07 0.04 0.04 0.03 0.02 0.01 0.01 0.02 0.02 0.01 0.01 0.01 0.01 0.01 0.01 0.01 0.01
0.35 0.33 0.20 0.11 0.15 0.20 0.27 0.36 0.39 0.37 0.38 0.45 0.51 0.62 0.84 0.90 0.79 0.48 0.27 0.18 0.13 0.11 0.05 0.04 0.03 0.02 0.01 0.02 0.03 0.02 0.01 0.01 0.01 0.01 0.00 0.00 0.00 0.00
0.31 0.37 0.29 0.23 0.22 0.24 0.22 0.21 0.24 0.25 0.25 0.28 0.38 0.55 0.77 1.01 0.98 0.82 0.60 0.37 0.27 0.18 0.08 0.05 0.03 0.02 0.02 0.02 0.03 0.03 0.02 0.01 0.01 0.00 0.00 0.00 0.00 0.00
0.27 0.30 0.33 0.29 0.23 0.22 0.26 0.20 0.17 0.18 0.20 0.22 0.29 0.47 0.64 0.84 1.01 0.97 0.73 0.44 0.31 0.20 0.07 0.04 0.03 0.02 0.02 0.02 0.02 0.03 0.02 0.01 0.00 0.00 0.00 0.00 0.00 0.00
0.32 0.36 0.42 0.40 0.29 0.20 0.24 0.24 0.17 0.14 0.15 0.16 0.20 0.29 0.43 0.57 0.76 0.77 0.61 0.41 0.26 0.16 0.06 0.02 0.02 0.02 0.03 0.02 0.01 0.01 0.01 0.01 0.00 0.00 0.00 0.00 0.00 0.00
0.31 0.33 0.42 0.40 0.32 0.21 0.23 0.25 0.19 0.18 0.19 0.17 0.18 0.24 0.35 0.47 0.56 0.68 0.61 0.43 0.26 0.13 0.05 0.02 0.01 0.01 0.01 0.02 0.02 0.01 0.00 0.00 0.00 0.00 0.00 0.00 0.00 0.00
0.42 0.44 0.49 0.50 0.39 0.30 0.26 0.25 0.18 0.15 0.20 0.22 0.21 0.23 0.28 0.35 0.46 0.58 0.63 0.51 0.35 0.20 0.10 0.03 0.02 0.01 0.01 0.01 0.01 0.01 0.01 0.00 0.00 0.00 0.00 0.00 0.00 0.00
0.48 0.62 0.65 0.62 0.52 0.41 0.36 0.33 0.23 0.17 0.17 0.18 0.20 0.20 0.22 0.31 0.44 0.54 0.57 0.51 0.41 0.28 0.16 0.07 0.02 0.01 0.01 0.01 0.01 0.01 0.00 0.00 0.00 0.00 0.00 0.00 0.00 0.00
0.38 0.55 0.68 0.74 0.69 0.57 0.48 0.44 0.30 0.20 0.18 0.17 0.19 0.23 0.27 0.34 0.43 0.41 0.40 0.37 0.34 0.27 0.15 0.07 0.03 0.01 0.00 0.00 0.00 0.00 0.00 0.00 0.00 0.00 0.00 0.00 0.00 0.00
0.28 0.53 0.69 0.79 0.81 0.75 0.63 0.54 0.41 0.30 0.24 0.23 0.22 0.24 0.27 0.32 0.36 0.36 0.33 0.28 0.22 0.15 0.10 0.06 0.03 0.02 0.01 0.01 0.00 0.00 0.00 0.00 0.00 0.00 0.00 0.00 0.00 0.00
0.26 0.51 0.66 0.74 0.76 0.79 0.75 0.67 0.52 0.38 0.31 0.28 0.25 0.25 0.27 0.27 0.28 0.31 0.29 0.27 0.20 0.13 0.07 0.04 0.03 0.02 0.01 0.01 0.00 0.00 0.00 0.00 0.00 0.00 0.00 0.00 0.00 0.00
0.28 0.42 0.47 0.53 0.59 0.70 0.77 0.74 0.57 0.43 0.41 0.40 0.34 0.29 0.29 0.27 0.24 0.25 0.27 0.24 0.21 0.15 0.09 0.04 0.02 0.01 0.01 0.01 0.00 0.00 0.00 0.00 0.00 0.00 0.00 0.00 0.00 0.00
0.23 0.28 0.29 0.34 0.42 0.57 0.70 0.74 0.64 0.51 0.48 0.50 0.45 0.37 0.33 0.27 0.24 0.20 0.21 0.20 0.17 0.13 0.10 0.06 0.03 0.01 0.01 0.01 0.00 0.00 0.00 0.00 0.00 0.00 0.00 0.00 0.00 0.00
0.15 0.17 0.18 0.24 0.33 0.49 0.62 0.69 0.67 0.58 0.51 0.52 0.50 0.42 0.36 0.29 0.24 0.20 0.18 0.18 0.15 0.10 0.07 0.05 0.04 0.02 0.01 0.01 0.00 0.00 0.00 0.00 0.00 0.00 0.00 0.00 0.00 0.00
0.15 0.13 0.13 0.18 0.30 0.45 0.57 0.62 0.62 0.59 0.54 0.52 0.48 0.41 0.36 0.31 0.24 0.22 0.18 0.14 0.11 0.08 0.06 0.06 0.05 0.04 0.02 0.01 0.00 0.00 0.00 0.00 0.00 0.00 0.00 0.00 0.00 0.00
0.13 0.11 0.12 0.16 0.26 0.39 0.48 0.53 0.53 0.52 0.50 0.48 0.44 0.38 0.32 0.30 0.27 0.22 0.19 0.14 0.09 0.08 0.08 0.07 0.06 0.05 0.03 0.01 0.01 0.00 0.00 0.00 0.00 0.00 0.00 0.00 0.00 0.00